Starlink 30175

operational
NORAD ID: 57311 Int'l Des: 2023-096 Owner: SPXS Country: US Constellation: starlink
LEOCIRCULAR

About Starlink 30175

Description loading...

Live Position

Loading 3D Globe...

Upcoming Passes

Altitude History

Altitude vs Time

uPlot chart will show altitude changes over time

Two-Line Element Set

1 57311U 23096X 25353.83335647 .00137887 00000-0 23937-2 0 9994
2 57311 42.9825 258.8038 0032986 195.4540 141.8799 15.49037182 5878
Epoch: Dec 19, 2025 • Age: 8 hours

Current Status

Altitude 417.4 km
Velocity 7.67 km/s
Sub-Earth Point 37.38°N, 131.98°W
Launch Date Jul 10, 2023
Age 2.4 years
Type internet

Technical Details

Classification Payload
Mass 730.00 kg
Dry Mass 700.00 kg
Total Mass 730.00 kg
Length 0.30 m
Diameter 4.10 m
Span 29.00 m
Shape Box + pan
Manufacturer SPXS
Bus Type Starlink V2M
Phase Status In Orbit
Owner/State SPXS/US

Large Constellations

Loading constellations...